Location: Bullfrog
(37.5121°N, 110.7330°W)
Time: 12:28:49
(UTC-07:00)

Hubble Space Telescope - Pass Details

Date: 25 January 2026
Orbit: 478 x 480 km, 28.5° (Epoch: 5 February)

Event Time Altitude Azimuth Distance (km) Brightness Sun altitude
Rises 18:46:06 0° 234° (SW) 2,507 5.5 -13.3°
Reaches altitude 10° 18:48:49 10° 214° (SW) 1,632 3.9 -13.9°
Maximum altitude 18:51:22 17° 171° (S) 1,243 2.7 -14.4°
Enters shadow 18:53:28 12° 133° (SE) 1,518 2.7 -14.8°
